IW2HNF-3 Weather Reports


time (UTC)temp
C
wind
direction
speed
KPH
gust
KPH
rain 1hr
cm
rain 24hr
cm
rain mn
cm
humidity
%
barometer
mb
20260507232054 12 0.0 1.6 0.00 0.13 0.00 84 1013.2
20260507231030 12 0.0 1.6 0.00 0.13 0.00 84 1013.3
20260507230054 12 270 0.0 3.2 0.00 0.13 0.00 84 1013.3
20260507225030 12 0.0 1.6 0.00 0.13 0.00 82 1013.4
20260507224054 13 0.0 1.6 0.00 0.13 0.00 82 1013.4
20260507223030 13 0.0 1.6 0.00 0.13 0.00 82 1013.4
20260507222054 13 0.0 1.6 0.00 0.13 0.00 82 1013.4
20260507221030 13 0.0 1.6 0.00 0.13 0.00 81 1013.3
20260507220718 13 0.0 3.2 0.00 0.13 0.00 82 1013.3
20260507215030 13 0.0 1.6 0.00 0.13 0.13 81 1013.3
20260507214054 13 0.0 1.6 0.00 0.13 0.13 80 1013.1
20260507213030 13 0.0 1.6 0.00 0.13 0.13 79 1013.0
20260507212054 13 0.0 1.6 0.00 0.13 0.13 78 1013.0
20260507211030 13 0.0 1.6 0.00 0.13 0.13 76 1013.0
20260507205030 13 0.0 0.0 0.00 0.13 0.13 77 1012.9
20260507204054 14 0.0 1.6 0.00 0.13 0.13 76 1012.8
20260507203031 15 0.0 1.6 0.00 0.13 0.13 75 1012.9
20260507202054 15 0.0 0.0 0.00 0.13 0.13 75 1012.7
20260507201030 15 0.0 0.0 0.00 0.13 0.13 75 1012.6
20260507200718 15 0.0 0.0 0.00 0.13 0.13 74 1012.4
20260507195030 15 0.0 0.0 0.00 0.13 0.13 71 1012.2
20260507193031 16 0.0 0.0 0.00 0.13 0.13 68 1012.0
20260507192054 16 0.0 0.0 0.00 0.13 0.13 67 1011.9
20260507191030 16 0.0 0.0 0.00 0.13 0.13 67 1011.7
20260507185030 17 0.0 1.6 0.00 0.13 0.13 70 1011.6
20260507184054 17 0.0 0.0 0.00 0.15 0.13 67 1011.4
20260507183031 17 0.0 1.6 0.00 0.20 0.13 69 1011.3
20260507182054 18 0.0 0.0 0.00 0.43 0.13 68 1011.3
20260507181030 19 0.0 0.0 0.00 0.84 0.13 67 1011.2
20260507175606 20 0.0 0.0 0.00 0.86 0.13 64 1011.0
20260507174543 20 0.0 1.6 0.00 0.86 0.13 64 1010.9
20260507173607 20 0.0 0.0 0.00 0.86 0.13 63 1010.8
20260507172542 20 0.0 1.6 0.00 0.86 0.13 63 1010.8
20260507171606 20 0.0 1.6 0.00 0.86 0.13 62 1010.7
20260507170542 20 163 1.6 6.4 0.00 0.86 0.13 64 1010.7
20260507165606 20 0.0 1.6 0.00 0.86 0.13 62 1010.6
20260507164542 20 0.0 3.2 0.00 0.86 0.13 63 1010.6
20260507163606 20 0.0 1.6 0.00 0.86 0.13 61 1010.6
20260507162543 20 0.0 3.2 0.00 0.86 0.13 60 1010.5
20260507161607 20 0.0 3.2 0.00 0.86 0.13 61 1010.5
20260507133526 20 0.0 1.6 0.00 9.83 0.13 68 1011.1
20260507132550 19 277 1.6 8.0 0.00 10.90 0.13 64 1011.1
20260507131527 19 236 3.2 8.0 0.00 11.13 0.13 67 1011.2
20260507130550 19 225 3.2 11.3 0.00 11.13 0.13 69 1011.3
20260507125526 19 0.0 3.2 0.00 11.15 0.13 67 1011.3
20260507124550 19 219 3.2 12.9 0.00 11.20 0.13 68 1011.3
20260507123526 19 0.0 1.6 0.00 11.20 0.13 69 1011.4
20260507122550 18 0.0 3.2 0.00 11.20 0.13 71 1011.4
20260507121527 18 206 1.6 12.9 0.00 11.20 0.13 78 1011.4
20260507120815 18 0.0 3.2 0.00 11.23 0.13 78 1011.5
20260507115038 18 213 4.8 12.9 0.00 11.23 0.13 76 1011.6
20260507114048 17 0.0 1.6 0.00 11.23 0.13 77 1011.7
20260507113112 17 237 8.0 12.9 0.00 11.23 0.13 83 1011.8
20260507110047 17 282 1.6 8.0 0.00 11.23 0.13 88 1012.1
20260507105111 17 0.0 3.2 0.00 11.23 0.13 88 1012.2
20260507104033 16 135 0.0 3.2 0.00 11.23 0.13 86 1012.3
20260507103057 16 192 1.6 4.8 0.00 11.23 0.13 85 1012.3
20260507102033 16 239 3.2 9.7 0.00 11.23 0.13 84 1012.4
20260507101057 16 306 1.6 4.8 0.00 11.23 0.13 84 1012.4
20260507100745 16 0.0 3.2 0.00 11.23 0.13 92 1012.4
20260507095057 16 0.0 1.6 0.00 11.23 0.13 92 1012.4
20260507094033 16 0.0 0.0 0.00 11.23 0.13 91 1012.4
20260507093059 16 0.0 0.0 0.00 11.23 0.13 90 1012.4
20260507092033 15 0.0 0.0 0.00 11.23 0.13 89 1012.4
20260507091058 15 0.0 0.0 0.00 11.23 0.13 90 1012.4
20260507090033 15 0.0 0.0 0.00 11.23 0.13 90 1012.4
20260507085058 15 0.0 3.2 0.00 11.33 0.13 89 1012.3
20260507084034 15 0.0 0.0 0.00 11.40 0.13 90 1012.3
20260507083057 14 0.0 1.6 0.00 11.46 0.13 92 1012.3
20260507082033 14 0.0 0.0 0.00 11.56 0.13 95 1012.3
20260507081057 13 0.0 0.0 0.00 11.76 0.13 95 1012.2
20260507080747 13 0.0 1.6 0.00 11.86 0.13 96 1012.2
20260507075057 13 0.0 1.6 0.00 11.91 0.13 97 1012.0
20260507074033 13 0.0 1.6 0.00 11.91 0.13 97 1012.0
20260507073057 13 0.0 3.2 0.00 11.94 0.13 97 1011.9
20260507072033 12 0.0 1.6 0.00 11.94 0.13 97 1011.9
20260507071058 12 0.0 1.6 0.00 11.94 0.13 97 1011.9
20260507070035 12 0.0 3.2 0.00 11.94 0.13 97 1011.8
20260507065057 12 0.0 1.6 0.00 11.96 0.13 97 1011.6
20260507064033 12 0.0 1.6 0.00 11.96 0.13 97 1011.6
20260507063057 12 0.0 0.0 0.00 11.96 0.13 98 1011.5
20260507062033 11 0.0 0.0 0.00 11.96 0.13 98 1011.4
20260507061057 11 0.0 1.6 0.00 11.96 0.13 98 1011.4
20260507060745 11 0.0 1.6 0.00 11.99 0.13 99 1011.3
20260507055057 10 0.0 3.2 0.00 11.99 0.13 99 1011.2
20260507054034 10 0.0 1.6 0.00 11.99 0.13 99 1011.1
20260507053058 10 0.0 3.2 0.00 11.99 0.13 99 1010.9
20260507052033 10 0.0 1.6 0.00 11.99 0.13 99 1010.9
20260507051058 10 0.0 3.2 0.00 12.04 0.13 99 1010.8
20260507050033 9 0.0 0.0 0.00 12.06 0.13 99 1010.7
20260507045058 9 0.0 1.6 0.03 12.12 0.13 99 1010.6
20260507044033 9 0.0 1.6 0.05 12.12 0.13 99 1010.5
20260507043057 9 0.0 1.6 0.05 12.12 0.13 99 1010.4
20260507042033 9 0.0 1.6 0.05 12.14 0.13 99 1010.5
20260507041058 10 0.0 0.0 0.05 12.19 0.13 99 1010.4
20260507040746 10 0.0 1.6 0.05 12.19 0.13 99 1010.4
20260507035058 10 0.0 1.6 0.03 12.14 0.10 99 1010.3
20260507034034 10 0.0 0.0 0.00 12.12 0.05 99 1010.4
20260507033057 10 0.0 1.6 0.00 12.12 0.05 99 1010.3
20260507032034 10 0.0 1.6 0.00 12.14 0.05 99 1010.3
20260507031058 10 0.0 1.6 0.00 12.14 0.05 99 1010.2
20260507030033 10 0.0 3.2 0.00 12.19 0.05 99 1010.3
20260507025059 10 0.0 3.2 0.00 12.19 0.05 99 1010.2
20260507024034 10 0.0 3.2 0.00 12.19 0.05 99 1010.2
20260507023058 9 0.0 3.2 0.00 12.22 0.05 99 1010.2
20260507022034 9 0.0 1.6 0.00 12.22 0.05 99 1010.3
20260507021058 9 0.0 1.6 0.00 12.22 0.05 99 1010.3
20260507020746 9 0.0 3.2 0.00 12.22 0.05 99 1010.4
20260507015059 10 0.0 1.6 0.03 12.22 0.05 99 1010.2
20260507014035 10 0.0 0.0 0.05 12.22 0.05 99 1010.2
20260507013058 10 0.0 3.2 0.05 12.22 0.05 99 1010.1
20260507012033 10 0.0 3.2 0.05 12.22 0.05 99 1010.1
20260507011058 10 0.0 3.2 0.05 12.22 0.05 99 1010.1
20260507010034 10 0.0 1.6 0.05 12.22 0.05 99 1010.2
20260507005058 10 0.0 1.6 0.03 12.19 0.03 99 1010.1
20260507004035 10 0.0 0.0 0.00 12.14 0.00 99 1009.9
20260507003058 10 0.0 1.6 0.00 12.14 0.00 99 1009.8
20260507002034 10 0.0 1.6 0.00 12.14 0.00 99 1009.8
20260507001058 10 0.0 0.0 0.00 12.14 0.00 99 1009.9
20260507000747 10 0.0 0.0 0.00 12.14 0.00 99 1009.9
20260506235058 10 0.0 1.6 0.00 12.14 0.00 99 1009.9
20260506234034 10 0.0 1.6 0.00 12.14 0.00 99 1009.9
20260506233059 10 0.0 3.2 0.00 12.14 0.00 99 1009.9